Flag for U.S.A. Weather past 2 weeks in Santa Clarita, California, U.S.A.

Now
100 °F

Sunny.


Feels Like: 97 °F
Forecast: 73 / 100 °F
Wind: 13 mph from Northwest

Location: Van Nuys Airport

Current Time: Sep 15, 2014 at 5:59:53 PM

Latest Report: Sep 15, 2014 at 4:51 PM


Visibility: 10 mi

Pressure: 29.71 "Hg

Humidity: 18%

Dew point: 49 °F

Location of Santa ClaritaLocation

Historic Weather in Santa Clarita — Graph

°F

Santa Clarita temperature yesterday

Maximum temperature yesterday: 106 °F (at 12:51 PM)
Minimum temperature yesterday: 74 °F (at 5:51 AM)
Average temperature yesterday: 90 °F

Past Weeks' High & Low Weather Summary

 TemperatureHumidityPressure
High106 °F (Sep 14, 12:51 PM)90% (Sep 5, 4:51 AM)29.92 "Hg (Sep 5, 4:51 AM)
Low62 °F (Sep 10, 6:51 AM)10% (Sep 1, 3:51 PM)29.65 "Hg (Sep 14, 4:51 PM)
Average81 °F45%29.79 "Hg
* Reported Aug 31 4:51 PM — Sep 15 4:51 PM, Santa Clarita, Weather by CustomWeather, © 2014

Note: Actual official high and low records may vary slightly from our data, if they occured in-between our weather recording intervals... More about our weather records

Advertising

Santa Clarita weather history for previous 24 hours

 ConditionsComfort  
Time TempWeatherWind HumidityBarometerVisibility
4:51 PM
Sep 15
100 °FSunny.13 mph18%29.71 "Hg10 mi
3:51 PM103 °FSunny.9 mph18%29.71 "Hg10 mi
2:51 PM106 °FScattered clouds.7 mph14%29.72 "Hg10 mi
1:51 PM106 °FPassing clouds.10 mph14%29.74 "Hg10 mi
12:51 PM105 °FSunny.6 mph16%29.75 "Hg10 mi
11:51 AM101 °FSunny.5 mph17%29.77 "Hg10 mi
10:51 AM96 °FSunny.No wind21%29.79 "Hg10 mi
9:51 AM92 °FSunny.No wind28%29.80 "Hg10 mi
8:51 AM84 °FSunny.No wind40%29.80 "Hg10 mi
7:51 AM80 °FSunny.No wind45%29.79 "Hg10 mi
6:51 AM76 °FClear.No wind52%29.78 "Hg10 mi
5:51 AM76 °FClear.No wind52%29.76 "Hg10 mi
4:51 AM78 °FClear.No wind46%29.75 "Hg10 mi
3:51 AM79 °FClear.No wind47%29.75 "Hg10 mi
2:51 AM82 °FClear.No wind44%29.75 "Hg10 mi
1:51 AM81 °FClear.No wind41%29.75 "Hg10 mi
12:51 AM85 °FClear.3 mph35%29.75 "Hg10 mi
11:51 PM
Sep 14
84 °FClear.No wind35%29.74 "Hg10 mi
10:51 PM85 °FClear.No wind30%29.73 "Hg10 mi
9:51 PM88 °FClear.3 mph26%29.72 "Hg10 mi
8:51 PM90 °FClear.5 mph24%29.71 "Hg10 mi
7:51 PM93 °FSunny.3 mph23%29.69 "Hg10 mi
6:51 PM96 °FSunny.8 mph21%29.67 "Hg10 mi
5:51 PM99 °FSunny.10 mph17%29.67 "Hg10 mi
Weather by CustomWeather, © 2014

See weather overviewHow to use our weather pages